Regional Weather Roundup
Issued by NWS Green Bay, WI

Home | Current Version | Previous Version | Text Only | Print | Product List | Glossary On
Versions: 1 2 3 4 5 6 7 8 9 10 11 12 13 14 15 16 17 18 19 20 21 22 23 24 25 26 27 28 29 30 31 32 33 34 35 36 37 38 39 40 41 42 43 44 45 46 47 48 49 50
000
ASUS43 KGRB 061710
RWRGRB

NORTH-CENTRAL AND NORTHEAST WISCONSIN REGIONAL WEATHER ROUNDUP
NATIONAL WEATHER SERVICE GREEN BAY WI
1100 AM CST FRI MAR 06 2015

WIZ005-009-010>012-018-019-061800-
NORTH CENTRAL WISCONSIN

CITY           SKY/WX    TMP DP  RH WIND       PRES   REMARKS
IRONWOOD       MOSUNNY   21   7  53 SW14      29.92F WCI   8
MANITOWISH WTR MOSUNNY   17   4  56 SW13G18   29.95F WCI   3
ARBOR VITAE    PTSUNNY   19   6  56 S16       29.96F WCI   5
EAGLE RIVER    MOSUNNY   16   1  51 SW12G17   29.96F WCI   3
LAND O LAKES   CLOUDY    20   3  48 SW9       29.95F WCI   9
RHINELANDER    CLOUDY    15   3  59 SW10G18   29.99F WCI   2
PHILLIPS       SUNNY     16   4  58 SW10      29.99F WCI   4
ANTIGO         CLOUDY    17   6  61 SW15      30.02F WCI   2
TOMAHAWK       CLOUDY    18   4  55 W6        30.02F WCI   9
MERRILL        PTSUNNY   17   4  57 SW13      30.05F WCI   3
$$

WIZ013-073-061800-
NORTHEAST WISCONSIN

CITY           SKY/WX    TMP DP  RH WIND       PRES   REMARKS
IRON MOUNTAIN  SUNNY     25   6  44 SW10      29.98F
MARINETTE      SUNNY     18   3  53 SW14      30.11F WCI   4
OCONTO         MOSUNNY   21   5  49 SW9G17    30.13F
$$

WIZ017-030-035>037-045-061800-
CENTRAL WISCONSIN

CITY           SKY/WX    TMP DP  RH WIND       PRES   REMARKS
MEDFORD        CLOUDY    15   5  63 SW9       30.04S WCI   3
WAUSAU         CLOUDY    18   5  57 SW14      30.05F WCI   4
MOSINEE        PTSUNNY   18   7  62 S13       30.08F WCI   4
MARSHFIELD     CLOUDY    21   8  57 SW13      30.07F WCI   9
WISC RAPIDS    CLOUDY    22   6  50 SW14      30.11F WCI   9
STEVENS POINT  CLOUDY    20   6  54 SW15      30.09F WCI   6
WAUPACA        PTSUNNY   26   7  44 S13       30.14F
SHAWANO        PTSUNNY   22   5  47 SW14G21   30.12F WCI   9
CLINTONVILLE   MOSUNNY   21   7  53 SW14      30.13F WCI   8
$$

WIZ038-039-048-051-061800-
FOX VALLEY

CITY           SKY/WX    TMP DP  RH WIND       PRES   REMARKS
NWS GREEN BAY  MOSUNNY   17   6  62 S16G23    30.16F WCI   2
APPLETON       MOSUNNY   18   5  57 S17G25    30.15F WCI   2
OSHKOSH        MOSUNNY   20   7  57 SW21G31   30.17F WCI   4
FOND DU LAC    SUNNY     21   5  50 S17G29    30.18F WCI   7
$$

WIZ022-050-052-061800-
EAST CENTRAL WISCONSIN

CITY           SKY/WX    TMP DP  RH WIND       PRES   REMARKS
STURGEON BAY   PTSUNNY   19   3  49 SW23      30.15F WCI   2
MANITOWOC      CLOUDY    23   7  50 S13       30.20F
SHEBOYGAN      MOSUNNY   21   7  54 S20       30.21F WCI   6
$$

LMZ563-521-522-541>543-061800-
LAKESHORE

STATION/POSITION TIME  TEMP    WIND        PRES    VSBY  WAVE
                       AIR SEA DIR/SP/G                  HT/PER
                 (UTC) (F)     (DEG/KT/KT) (MB)    (MI)  (FT/S)
SHEBOYGAN LKSHOR 1700   20     210/ 21/ 24 1024.8F
KEWAUNEE LKSHORE 1700   20     210/ 11/ 14 1021.3F
TWO RIVERS CG    1600   16                   N/A       6   0
NORTHPORT PIER   1700   23     210/  6/ 14 1020.3F
SISTER BAY LKSHO 1600   25     240/ 14/ 19   N/A
STURGEON BAY CG  1600   17     210/  9     1024.3   3 1/2
CHAMBERS ISLAND  1700   13     190/ 13/ 22 1020.7S
MENOMINEE LKSHOR 1700   14     180/ 13     1020.7F
$$


USA.gov is the U.S. government's official web portal to all federal, state and local government web resources and services.